www.pogodaiklimat.ru

Погода и климат >> Архив погоды >> Россия >> Приморский край >> Барабаш


ПОГОДА в Барабаше

  • Прогноз погоды в Барабаше
  • Монитор погоды в Барабаше

АРХИВ ПОГОДЫ в Барабаше

Время (UTC), дата Ветер
(напр.,м/с)
 
Видим.   Явления Облачность Т
(С)
Тd
(С)
f
(%)
Тe
(С)
Тes
(С)
Комфортность P
(гПа)
Po
(гПа)
Тmin
(С)
Tmax
(С)
R
(мм)
R24
(мм)
S
(см)
03 17.02 СЗ 2 20 км ясно +4.1 -18.8 17 +3 +10 1016.5 1012.0
06 17.02 ЮВ 2 н/о н/о +4.3 -14.5 24 +3 1015.2 1010.7
09 17.02 СЗ 1 50 км ясно +0.4 -16.9 26 -0 -0 1015.2 1010.7 +6.9
12 17.02 штиль 0 н/о н/о -8.4 -16.0 54 -9 1019.4 1014.7
15 17.02 штиль 0 10 км ясно -11.2 -16.6 64 -11 -11 1020.8 1016.0
18 17.02 штиль 0 н/о н/о -8.3 -15.7 55 -9 1022.0 1017.3
21 17.02 штиль 0 10 км ясно -14.3 -17.5 77 -14 -14 1022.5 1017.6 -14.3
00 18.02 СЗ 2 н/о н/о -4.9 -14.4 47 -9 -9 1023.7 1019.0 -15.2
03 18.02 В 2 50 км ясно +5.3 -15.8 20 +4 +12 1023.2 1018.7
06 18.02 Ю 2 н/о н/о +7.2 -16.9 16 +6 1020.5 1016.0
09 18.02 Ю 2 20 км ясно +3.1 -6.6 49 +1 +1 1021.8 1017.3 +7.6
12 18.02 З 1 н/о н/о -6.1 -9.8 75 -8 1023.4 1018.7
15 18.02 С 2 10 км 10 баллов -8.5 -11.3 80 -13 -13 1023.4 1018.7
18 18.02 штиль 0 н/о н/о -7.3 -10.5 78 -8 1023.4 1018.7
21 18.02 штиль 0 10 км 8/0
[Cc]
-9.0 -11.3 83 -10 -10 1020.9 1016.2 -9.1
00 19.02 СЗ 1 н/о н/о -4.7 -8.7 74 -7 -7 1020.8 1016.1 -9.8
03 19.02 штиль 0 50 км 10/0
[As trans]
+1.3 -5.6 60 +1 +1 1019.2 1014.7
06 19.02 Ю 1 н/о н/о +2.2 -4.3 62 +1 1017.8 1013.3
09 19.02 СЗ 1 20 км слаб. снег 10/0
[As op]
+1.3 -2.5 76 -0 -0 1016.5 1012.0 +2.5 0.0
12 19.02 С 1 н/о н/о -0.9 -3.3 84 -3 1016.6 1012.0
15 19.02 С 2 10 км 10/0
[As trans]
-2.6 -4.6 86 -7 -7 1016.6 1012.0
18 19.02 С 1 н/о н/о -4.7 -7.0 84 -7 1017.9 1013.3
21 19.02 СЗ 1 10 км 6/0
[Ac trans]
-5.7 -10.4 69 -8 -8 1016.6 1011.9 -5.7 0.0
00 20.02 С 1 н/о н/о -0.2 -6.4 63 -2 -2 1018.6 1014.1 -6.0
03 20.02 С 3 20 км 10/0
[As trans]
+4.1 -12.3 29 +1 +1 1019.2 1014.7
06 20.02 С 3 н/о н/о +4.7 -13.6 25 +2 1019.2 1014.7
09 20.02 С 1 20 км ясно +2.0 -15.5 26 +2 +2 1020.5 1016.0 +5.1
12 20.02 СЗ 1 н/о н/о -7.5 -14.5 57 -10 1023.4 1018.7
15 20.02 штиль 0 10 км 8/0
[Ci]
-10.9 -14.8 73 -11 -11 1024.8 1020.0
18 20.02 СЗ 2 н/о н/о -2.8 -8.9 63 -6 1024.6 1020.0
21 20.02 СЗ 1 10 км ясно -9.9 -11.7 87 -12 -12 1023.9 1019.1 -12.7
00 21.02 штиль 0 н/о н/о -2.0 -7.3 67 -3 -3 1024.0 1019.4
03 21.02 СЗ 2 20 км ясно +7.4 -14.1 20 +6 +14 1023.2 1018.7
06 21.02 В 2 н/о н/о +7.9 -13.7 20 +7 1020.4 1016.0
09 21.02 штиль 0 50 км ясно -0.8 -13.3 38 -1 -1 1020.6 1016.0 +9.9
12 21.02 СЗ 2 н/о н/о -6.8 -14.3 55 -11 1022.0 1017.3
15 21.02 С 2 10 км 2 балла -9.2 -14.9 63 -14 -14 1022.0 1017.3
18 21.02 С 2 н/о н/о -9.4 -14.6 66 -14 1022.0 1017.3
21 21.02 СВ 1 10 км 9/0
[Ci]
-11.9 -15.2 76 -14 -14 1020.8 1016.0 -11.9
00 22.02 С 2 н/о н/о -0.4 -10.6 46 -3 -3 1021.6 1017.0 -12.8
03 22.02 СЗ 2 20 км ясно +8.4 -14.5 18 +8 +16 1021.7 1017.3
06 22.02 С 4 н/о н/о +9.4 -16.7 14 +8 1019.1 1014.7
09 22.02 СЗ 1
{11}
50 км 3/3 600 м
[Sc]
+5.3 -16.5 19 +5 +5 1019.2 1014.7 +9.8
12 22.02 СЗ 1 н/о н/о -6.1 -15.1 49 -8 1022.0 1017.3
15 22.02 СЗ 1 10 км ясно -8.4 -15.0 59 -10 -10 1022.0 1017.3
18 22.02 штиль 0 н/о н/о -10.8 -14.8 72 -11 1023.5 1018.7
21 22.02 С 1 10 км ясно -10.8 -14.7 73 -13 -13 1024.0 1019.2 -11.5
00 23.02 С 1 н/о н/о -2.8 -11.9 49 -4 -4 1025.0 1020.4 -13.0
03 23.02 СЗ 3 20 км ясно +5.9 -17.3 17 +4 +11 1024.5 1020.0
06 23.02 СЗ 2 н/о н/о +8.5 -18.3 13 +8 1021.7 1017.3
09 23.02 ЮЗ 3 20 км ясно +3.2 -14.4 26 0 0 1021.8 1017.3 +9.0
12 23.02 С 1 н/о н/о -5.6 -13.2 55 -7 1022.0 1017.3
15 23.02 С 2 10 км 10 баллов -9.8 -14.6 68 -14 -14 1020.7 1016.0
18 23.02 СЗ 2 н/о н/о -9.9 -13.8 73 -14 1018.0 1013.3
21 23.02 С 1 10 км 8/0
[Ac lent Ci]
-10.1 -13.4 77 -12 -12 1016.1 1011.4 -10.7
00 24.02 СЗ 2 н/о н/о -7.1 -12.0 68 -11 -11 1015.3 1010.6 -11.9

 

Местоположение метеостанции Барабаш (Приморский край, Россия): широта 43.20 долгота 131.40 высота над уровнем моря 36 м.

В архиве по умолчанию представлена погода в Барабаше за последнюю неделю. Архивные данные за месяц целиком и за предыдущие месяцы, начиная с января 2011 года, Вы можете получить, выбрав интересующий диапазон дат из раскрывающегося списка и нажав кнопку "Ввод!".


*Определитесь, кто Вы:
робот инопланетянин человек

Внимание! Время в таблицах - всемирное. Для получения местного времени необходимо прибавить поправку, которая равна 10 ч.

Смотрите также архив погоды в соседних городах и на ближайших метеорологических станциях:

Погода в Владивостоке (Приморский край, Россия) (42 км)
Погода на Мысе Назимова (Приморский край, Россия) (44 км)
Погода в Гамове (Приморский край, Россия) (74 км)
Погода в Посьете (Приморский край, Россия) (78 км)
Погода в Тимирязевском (Приморский край, Россия) (86 км)
Погода в Многоудобном (Приморский край, Россия) (92 км)
Погода в Полтавке (Приморский край, Россия) (93 км)
Погода в Находке (Приморский край, Россия) (122 км)
Погода в Сонбонге (КНДР) (127 км)
Погода в Партизанске (Приморский край, Россия) (130 км)

Пояснения к столбцам:

Ветер - указаны скорость ветра в м/с - средняя за 10 мин, порывы в срок и между сроками (в фигурных скобках) и направление, откуда дует ветер: С - северный, СВ - северо-восточный, В - восточный, ЮВ - юго-восточный, Ю - южный, ЮЗ - юго-западный, З - западный, СЗ - северо-западный.
Видимость - горизонтальная дальность видимости в метрах или километрах. При видимости от 1 до 10 км при отсутствии осадков обычно наблюдается дымка, при ухудшении видимости до 1 км и менее - туман. В сухую погоду видимость может ухудшаться дымом, пылью или мглою.
Явления - указаны атмосферные явления, наблюдавшиеся в срок или в последний час перед сроком; фигурными скобками обозначены явления, наблюдавшиеся между сроками (за 1-3 часа до срока); квадратными скобками обозначены град или гололедные отложения с указанием их диаметра в мм.
Облачность - указаны через наклонную черту общая и нижняя облачность в баллах и высота нижней границы облаков в метрах; квадратными скобками обозначены формы облаков: Ci - перистые, Cs - перисто-слоистые, Cc - перисто-кучевые, Ac - высококучевые, As - высокослоистые, Sc - слоисто-кучевые, Ns - слоисто-дождевые, Cu - кучевые, Cb - кучево-дождевые. Подробнее классификацию облаков см. в Атласе облаков (PDF).
T - Температура воздуха - температура, измеренная на высоте 2 м над землей.
Td - Температура точки росы - температура, при понижении до которой содержащийся в воздухе водяной пар достигнет насыщения.
f - Относительная влажность воздуха - влажноcть воздуха, измеренная на высоте 2 м над землей.
Te - Эффективная температура - температура, которую ощущает одетый по сезону человек в тени. Характеристика душности погоды. При расчете учитывается влияние влажности воздуха и скорости ветра на теплоощущения человека.
Tes - Эффективная температура на солнце - температура, которую ощущает человек, с поправкой на солнечный нагрев. Характеристика знойности погоды. Зависит от высоты солнца над горизонтом, облачности и скорости ветра. Ночью, в пасмурную погоду, а также при ветре 12 м/с и более поправка равна нулю.
P - Атмосферное давление - приведенное к уровню моря атмосферное давление.
Po - Атмосферное давление - измеренное на уровне метеостанции атмосферное давление.
Tmin - Минимальная температура - минимум температуры воздуха на высоте 2 м над землей.
Tmax - Максимальная температура - максимум температуры воздуха на высоте 2 м над землей.
R - Количество осадков - Количество выпавших осадков за период времени, мм. При наведении курсора мыши на число - период времени, за который выпало указанное количество осадков.
R24 - Количество осадков - Количество выпавших осадков за 24 часа, мм.
S - Снежный покров - Высота снежного покрова, см. При наведении курсора мыши на число - состояние снежного покрова и степень покрытия местности в баллах.